Regional Weather Roundup
Issued by NWS

Home | Current Version | Previous Version | Text Only | Print | Product List | Glossary Off
Versions: 1 2 3 4 5 6 7 8 9 10 11 12 13 14 15 16 17 18 19 20 21 22 23 24 25 26 27 28 29 30 31 32 33 34 35 36 37 38 39 40 41 42 43 44 45 46 47 48 49 50

000
ASUS43 KBIS 030502
RWRND

NORTH DAKOTA REGIONAL WEATHER ROUNDUP
NATIONAL WEATHER SERVICE BISMARCK ND
1200 AM CDT FRI JUL 03 2015

NOTE: "FAIR" INDICATES FEW OR NO CLOUDS BELOW 12,000 FEET WITH NO
SIGNIFICANT WEATHER AND/OR OBSTRUCTIONS TO VISIBILITY.


NDZ001>003-009>011-017-030600-
NORTHWEST NORTH DAKOTA

CITY           SKY/WX    TMP DP  RH WIND       PRES   REMARKS
WILLISTON      CLEAR     68  62  81 N3        30.02S
MINOT          CLOUDY    66  63  90 SW7       29.96F FOG
$$

NDZ018>021-031>035-040>046-030600-
SOUTHWEST NORTH DAKOTA

CITY           SKY/WX    TMP DP  RH WIND       PRES   REMARKS
BISMARCK       CLOUDY    67  63  87 SW5       29.98F FOG
DICKINSON      CLEAR     64  59  83 E5        30.03S HAZE
GARRISON         N/A     65  62  90 NW5       29.98F
HETTINGER ARPT CLEAR     57  55  93 CALM      30.06S FOG
$$

NDZ004>008-012>016-024-026-027-054-030600-
NORTHEAST NORTH DAKOTA

CITY           SKY/WX    TMP DP  RH WIND       PRES   REMARKS
GRAND FORKS    CLOUDY    68  66  93 W7        29.89R
GRND FRKS AFB  PTCLDY    66  64  94 W8        29.90S
DEVILS LAKE    CLEAR     66  61  82 W8        29.92S
$$

NDZ022-023-025-028>030-036>039-047>053-030600-
SOUTHEAST NORTH DAKOTA

CITY           SKY/WX    TMP DP  RH WIND       PRES   REMARKS
FARGO          PTCLDY    66  55  67 S9        29.92F
JAMESTOWN      CLOUDY    66  63  90 NW3       29.95S
$$




USA.gov is the U.S. government's official web portal to all federal, state and local government web resources and services.